QPF
0.04 0.02 0.02 0.01 0.02 0.02 0.02 0.03 0.02 0.03 0.05 0.06 0.09 0.16 0.18 0.17 0.15 0.14 0.14 0.13 0.13 0.13 0.13 0.14 0.13 0.13 0.13 0.14 0.13 0.13 0.12 0.11 0.12 0.11 0.09 0.08 0.06 0.07 0.07 0.07 0.09 0.10 0.11
0.02 0.02 0.02 0.02 0.02 0.02 0.02 0.03 0.03 0.03 0.05 0.07 0.08 0.11 0.14 0.17 0.15 0.14 0.15 0.14 0.13 0.13 0.13 0.13 0.13 0.12 0.13 0.13 0.12 0.12 0.12 0.12 0.12 0.12 0.12 0.09 0.08 0.09 0.07 0.07 0.06 0.07 0.09
0.02 0.02 0.03 0.02 0.01 0.01 0.02 0.03 0.03 0.05 0.07 0.08 0.10 0.11 0.13 0.17 0.15 0.12 0.14 0.14 0.13 0.12 0.11 0.11 0.12 0.13 0.12 0.12 0.10 0.09 0.11 0.11 0.11 0.11 0.12 0.12 0.11 0.12 0.10 0.07 0.05 0.07 0.07
0.02 0.03 0.03 0.02 0.01 0.01 0.01 0.01 0.02 0.04 0.06 0.08 0.10 0.11 0.12 0.14 0.17 0.12 0.11 0.10 0.10 0.08 0.08 0.08 0.08 0.08 0.09 0.09 0.08 0.09 0.09 0.09 0.11 0.12 0.10 0.11 0.12 0.12 0.10 0.09 0.07 0.07 0.07
0.04 0.04 0.03 0.02 0.02 0.01 0.01 0.01 0.01 0.02 0.02 0.04 0.06 0.06 0.07 0.09 0.12 0.11 0.08 0.07 0.05 0.04 0.04 0.03 0.03 0.04 0.05 0.05 0.05 0.06 0.07 0.08 0.10 0.11 0.10 0.11 0.11 0.10 0.11 0.10 0.08 0.08 0.07
0.05 0.05 0.03 0.03 0.03 0.02 0.01 0.01 0.01 0.02 0.01 0.02 0.05 0.07 0.07 0.09 0.10 0.08 0.07 0.05 0.03 0.02 0.02 0.01 0.02 0.02 0.02 0.03 0.03 0.03 0.04 0.06 0.07 0.08 0.10 0.10 0.11 0.11 0.12 0.11 0.07 0.07 0.06
0.04 0.06 0.06 0.04 0.03 0.02 0.01 0.01 0.01 0.01 0.01 0.02 0.03 0.05 0.06 0.09 0.10 0.09 0.08 0.07 0.03 0.02 0.01 0.01 0.01 0.01 0.02 0.02 0.02 0.03 0.03 0.04 0.05 0.06 0.06 0.07 0.08 0.09 0.11 0.11 0.08 0.08 0.07
0.04 0.05 0.05 0.04 0.03 0.03 0.02 0.01 0.02 0.02 0.02 0.03 0.03 0.03 0.04 0.05 0.06 0.06 0.05 0.04 0.02 0.01 0.01 0.01 0.01 0.00 0.01 0.01 0.01 0.03 0.03 0.04 0.04 0.04 0.06 0.06 0.06 0.07 0.09 0.10 0.10 0.09 0.08
0.04 0.05 0.05 0.04 0.03 0.03 0.03 0.02 0.02 0.01 0.01 0.02 0.02 0.02 0.03 0.03 0.03 0.03 0.03 0.02 0.01 0.00 0.00 0.01 0.01 0.01 0.00 0.00 0.01 0.01 0.01 0.02 0.03 0.03 0.04 0.06 0.07 0.07 0.07 0.08 0.10 0.10 0.08
0.03 0.04 0.06 0.06 0.05 0.04 0.03 0.02 0.02 0.01 0.01 0.01 0.02 0.02 0.01 0.02 0.02 0.02 0.01 0.02 0.01 0.01 0.00 0.01 0.01 0.01 0.01 0.01 0.01 0.01 0.01 0.02 0.02 0.02 0.02 0.03 0.05 0.06 0.07 0.07 0.09 0.11 0.11
0.04 0.05 0.05 0.06 0.06 0.04 0.02 0.01 0.01 0.01 0.01 0.02 0.02 0.02 0.01 0.01 0.01 0.01 0.01 0.02 0.02 0.02 0.01 0.01 0.01 0.01 0.01 0.01 0.01 0.01 0.01 0.02 0.02 0.02 0.02 0.03 0.03 0.04 0.06 0.07 0.07 0.08 0.09
0.05 0.04 0.04 0.05 0.07 0.06 0.04 0.03 0.03 0.03 0.03 0.03 0.03 0.03 0.02 0.02 0.02 0.01 0.01 0.02 0.02 0.01 0.01 0.01 0.01 0.01 0.01 0.01 0.01 0.01 0.01 0.02 0.03 0.03 0.03 0.03 0.03 0.03 0.04 0.05 0.05 0.06 0.07
0.06 0.08 0.10 0.10 0.10 0.10 0.09 0.06 0.04 0.04 0.04 0.04 0.04 0.04 0.03 0.03 0.02 0.02 0.02 0.03 0.02 0.01 0.01 0.01 0.01 0.01 0.01 0.01 0.01 0.02 0.01 0.01 0.03 0.03 0.04 0.05 0.06 0.05 0.05 0.05 0.05 0.05 0.07
0.06 0.09 0.13 0.15 0.13 0.12 0.11 0.08 0.04 0.04 0.04 0.04 0.04 0.04 0.03 0.02 0.02 0.02 0.02 0.02 0.02 0.02 0.02 0.02 0.01 0.01 0.01 0.01 0.01 0.02 0.02 0.01 0.02 0.03 0.04 0.05 0.06 0.06 0.05 0.05 0.03 0.03 0.05
0.03 0.04 0.08 0.11 0.12 0.09 0.08 0.08 0.05 0.04 0.05 0.04 0.04 0.03 0.01 0.02 0.03 0.03 0.02 0.02 0.03 0.02 0.02 0.02 0.01 0.01 0.00 0.00 0.00 0.01 0.03 0.03 0.02 0.02 0.03 0.03 0.03 0.04 0.04 0.04 0.03 0.03 0.03
0.04 0.06 0.07 0.10 0.11 0.10 0.07 0.05 0.05 0.05 0.05 0.05 0.06 0.03 0.01 0.02 0.03 0.03 0.03 0.02 0.03 0.02 0.02 0.01 0.02 0.01 0.00 0.00 0.00 0.01 0.04 0.05 0.03 0.02 0.02 0.02 0.02 0.02 0.02 0.02 0.02 0.03 0.03
0.06 0.07 0.07 0.09 0.10 0.09 0.08 0.06 0.05 0.06 0.06 0.06 0.06 0.04 0.02 0.02 0.02 0.02 0.02 0.02 0.03 0.03 0.03 0.03 0.03 0.02 0.01 0.00 0.00 0.00 0.03 0.04 0.04 0.04 0.03 0.02 0.02 0.03 0.02 0.02 0.02 0.02 0.03
0.05 0.06 0.06 0.07 0.08 0.07 0.07 0.06 0.07 0.07 0.07 0.07 0.06 0.04 0.02 0.02 0.03 0.03 0.03 0.03 0.03 0.04 0.04 0.04 0.03 0.02 0.01 0.00 0.00 0.01 0.04 0.04 0.04 0.04 0.04 0.04 0.03 0.03 0.03 0.03 0.03 0.02 0.01
0.03 0.04 0.05 0.05 0.06 0.05 0.05 0.07 0.07 0.06 0.07 0.07 0.06 0.04 0.02 0.02 0.03 0.03 0.03 0.04 0.04 0.05 0.04 0.03 0.03 0.02 0.01 0.01 0.00 0.02 0.05 0.07 0.05 0.03 0.03 0.03 0.02 0.01 0.02 0.04 0.03 0.02 0.01
0.03 0.02 0.02 0.03 0.04 0.04 0.06 0.10 0.11 0.10 0.09 0.07 0.06 0.04 0.04 0.03 0.03 0.03 0.03 0.03 0.04 0.05 0.04 0.03 0.02 0.02 0.01 0.01 0.01 0.02 0.05 0.07 0.06 0.03 0.01 0.01 0.01 0.00 0.02 0.05 0.05 0.03 0.03
0.02 0.02 0.02 0.04 0.04 0.05 0.07 0.11 0.13 0.11 0.07 0.06 0.04 0.03 0.02 0.02 0.03 0.03 0.04 0.04 0.03 0.03 0.03 0.04 0.03 0.01 0.01 0.00 0.01 0.01 0.03 0.05 0.05 0.04 0.01 0.01 0.01 0.01 0.01 0.03 0.04 0.03 0.03
0.03 0.03 0.05 0.07 0.07 0.07 0.08 0.10 0.09 0.07 0.04 0.05 0.04 0.03 0.02 0.02 0.02 0.03 0.04 0.04 0.04 0.04 0.03 0.03 0.03 0.02 0.01 0.00 0.00 0.01 0.01 0.03 0.04 0.03 0.01 0.01 0.01 0.01 0.01 0.01 0.02 0.02 0.03
0.02 0.04 0.05 0.06 0.07 0.08 0.08 0.08 0.08 0.06 0.05 0.06 0.07 0.04 0.02 0.02 0.03 0.03 0.02 0.03 0.03 0.03 0.03 0.02 0.02 0.02 0.01 0.00 0.00 0.01 0.01 0.02 0.03 0.02 0.02 0.01 0.01 0.01 0.01 0.01 0.01 0.02 0.03
0.03 0.04 0.04 0.04 0.04 0.04 0.04 0.06 0.05 0.05 0.07 0.09 0.06 0.04 0.03 0.03 0.03 0.03 0.02 0.02 0.02 0.03 0.02 0.01 0.01 0.02 0.01 0.01 0.01 0.02 0.02 0.02 0.03 0.04 0.02 0.01 0.01 0.02 0.02 0.02 0.02 0.03 0.03
0.03 0.04 0.04 0.04 0.03 0.03 0.04 0.04 0.05 0.07 0.10 0.08 0.05 0.04 0.03 0.03 0.03 0.02 0.01 0.01 0.01 0.01 0.01 0.01 0.01 0.02 0.02 0.01 0.02 0.02 0.02 0.03 0.04 0.04 0.04 0.03 0.03 0.03 0.03 0.03 0.04 0.04 0.03
0.03 0.03 0.04 0.04 0.04 0.04 0.04 0.03 0.03 0.05 0.07 0.07 0.05 0.04 0.04 0.04 0.03 0.02 0.02 0.01 0.00 0.00 0.00 0.00 0.00 0.01 0.01 0.01 0.02 0.03 0.03 0.04 0.04 0.04 0.05 0.04 0.04 0.04 0.04 0.04 0.04 0.04 0.03
MSLP
1012.18 1012.90 1013.62 1014.26 1014.78 1015.15 1015.40 1015.57 1015.71 1015.87 1016.09 1016.38 1016.72 1017.09 1017.43 1017.72 1017.91 1018.00 1018.01 1017.94 1017.85 1017.77 1017.72 1017.72 1017.77 1017.85 1017.93 1018.01 1018.04 1018.04 1017.98 1017.89 1017.77 1017.65 1017.53 1017.42 1017.34 1017.28 1017.25 1017.24 1017.25 1017.28 1017.33
1011.73 1012.65 1013.56 1014.37 1015.02 1015.49 1015.78 1015.94 1016.04 1016.14 1016.29 1016.51 1016.79 1017.10 1017.42 1017.69 1017.89 1017.99 1018.02 1018.00 1017.94 1017.90 1017.88 1017.92 1017.99 1018.09 1018.19 1018.26 1018.30 1018.29 1018.24 1018.15 1018.03 1017.91 1017.80 1017.70 1017.64 1017.60 1017.59 1017.62 1017.67 1017.75 1017.83
1011.27 1012.36 1013.44 1014.41 1015.19 1015.75 1016.08 1016.25 1016.31 1016.34 1016.42 1016.55 1016.77 1017.03 1017.32 1017.58 1017.79 1017.92 1017.99 1018.01 1018.00 1017.99 1018.01 1018.07 1018.16 1018.27 1018.38 1018.46 1018.52 1018.52 1018.49 1018.42 1018.33 1018.24 1018.15 1018.08 1018.04 1018.04 1018.07 1018.14 1018.24 1018.36 1018.48
1010.90 1012.11 1013.33 1014.43 1015.32 1015.95 1016.33 1016.50 1016.53 1016.51 1016.52 1016.59 1016.74 1016.96 1017.22 1017.48 1017.70 1017.87 1017.98 1018.03 1018.06 1018.08 1018.11 1018.17 1018.26 1018.37 1018.49 1018.59 1018.67 1018.71 1018.72 1018.70 1018.66 1018.61 1018.56 1018.53 1018.52 1018.54 1018.60 1018.70 1018.84 1019.00 1019.16
1010.69 1011.97 1013.27 1014.46 1015.43 1016.12 1016.53 1016.71 1016.73 1016.68 1016.63 1016.65 1016.75 1016.94 1017.19 1017.45 1017.69 1017.89 1018.02 1018.10 1018.14 1018.17 1018.19 1018.23 1018.31 1018.40 1018.51 1018.63 1018.74 1018.84 1018.91 1018.96 1018.98 1018.99 1018.98 1018.97 1018.97 1019.01 1019.08 1019.20 1019.36 1019.55 1019.75
1010.68 1011.97 1013.30 1014.52 1015.53 1016.26 1016.70 1016.89 1016.91 1016.85 1016.78 1016.78 1016.86 1017.03 1017.28 1017.55 1017.80 1018.01 1018.16 1018.24 1018.27 1018.27 1018.26 1018.26 1018.29 1018.36 1018.47 1018.60 1018.75 1018.91 1019.05 1019.17 1019.25 1019.30 1019.33 1019.33 1019.33 1019.35 1019.42 1019.53 1019.70 1019.92 1020.15
1010.90 1012.15 1013.45 1014.66 1015.66 1016.40 1016.86 1017.06 1017.10 1017.04 1016.98 1016.98 1017.07 1017.24 1017.49 1017.77 1018.03 1018.24 1018.38 1018.44 1018.44 1018.39 1018.32 1018.26 1018.25 1018.28 1018.37 1018.52 1018.70 1018.91 1019.11 1019.29 1019.43 1019.52 1019.56 1019.55 1019.53 1019.52 1019.55 1019.65 1019.82 1020.05 1020.32
1011.37 1012.53 1013.75 1014.90 1015.86 1016.57 1017.03 1017.25 1017.30 1017.28 1017.25 1017.27 1017.37 1017.57 1017.82 1018.10 1018.36 1018.55 1018.67 1018.69 1018.64 1018.52 1018.39 1018.27 1018.20 1018.19 1018.26 1018.41 1018.62 1018.86 1019.11 1019.34 1019.51 1019.61 1019.64 1019.61 1019.55 1019.50 1019.49 1019.55 1019.72 1019.97 1020.29
1012.08 1013.13 1014.23 1015.28 1016.16 1016.82 1017.26 1017.49 1017.57 1017.58 1017.59 1017.64 1017.77 1017.98 1018.24 1018.51 1018.74 1018.91 1018.99 1018.96 1018.85 1018.68 1018.48 1018.30 1018.18 1018.14 1018.19 1018.33 1018.55 1018.81 1019.09 1019.33 1019.51 1019.60 1019.61 1019.54 1019.44 1019.33 1019.28 1019.32 1019.48 1019.76 1020.14
1013.04 1013.95 1014.92 1015.83 1016.61 1017.20 1017.60 1017.83 1017.93 1017.97 1018.01 1018.10 1018.25 1018.46 1018.70 1018.95 1019.15 1019.28 1019.31 1019.24 1019.08 1018.86 1018.62 1018.39 1018.23 1018.16 1018.19 1018.32 1018.54 1018.80 1019.07 1019.30 1019.47 1019.54 1019.52 1019.41 1019.27 1019.12 1019.04 1019.07 1019.24 1019.56 1019.99
1014.22 1015.00 1015.82 1016.59 1017.24 1017.75 1018.09 1018.30 1018.41 1018.48 1018.54 1018.64 1018.79 1018.98 1019.19 1019.39 1019.55 1019.63 1019.61 1019.50 1019.31 1019.06 1018.80 1018.56 1018.39 1018.30 1018.32 1018.44 1018.63 1018.87 1019.12 1019.32 1019.46 1019.49 1019.44 1019.31 1019.14 1018.98 1018.89 1018.93 1019.12 1019.47 1019.96
1015.56 1016.22 1016.89 1017.52 1018.05 1018.46 1018.75 1018.93 1019.03 1019.09 1019.16 1019.24 1019.36 1019.51 1019.67 1019.81 1019.90 1019.93 1019.87 1019.74 1019.54 1019.29 1019.04 1018.82 1018.66 1018.58 1018.59 1018.68 1018.85 1019.05 1019.25 1019.41 1019.51 1019.51 1019.44 1019.29 1019.12 1018.97 1018.91 1018.97 1019.18 1019.57 1020.10
1016.97 1017.53 1018.08 1018.58 1019.00 1019.32 1019.54 1019.68 1019.75 1019.80 1019.84 1019.89 1019.96 1020.04 1020.12 1020.18 1020.21 1020.18 1020.09 1019.95 1019.76 1019.55 1019.34 1019.15 1019.02 1018.96 1018.97 1019.05 1019.17 1019.33 1019.47 1019.59 1019.64 1019.62 1019.53 1019.40 1019.25 1019.14 1019.11 1019.21 1019.45 1019.85 1020.40
1018.35 1018.82 1019.27 1019.66 1019.98 1020.23 1020.39 1020.49 1020.53 1020.54 1020.54 1020.53 1020.53 1020.52 1020.52 1020.50 1020.45 1020.38 1020.27 1020.14 1019.98 1019.82 1019.67 1019.55 1019.46 1019.43 1019.44 1019.49 1019.58 1019.68 1019.76 1019.82 1019.83 1019.79 1019.71 1019.61 1019.51 1019.45 1019.47 1019.60 1019.87 1020.27 1020.79
1019.56 1019.97 1020.35 1020.66 1020.91 1021.10 1021.21 1021.27 1021.27 1021.24 1021.19 1021.12 1021.04 1020.95 1020.85 1020.75 1020.64 1020.53 1020.42 1020.31 1020.20 1020.11 1020.03 1019.97 1019.94 1019.93 1019.95 1019.97 1020.01 1020.05 1020.07 1020.07 1020.05 1020.00 1019.93 1019.86 1019.82 1019.82 1019.89 1020.07 1020.34 1020.73 1021.20
1020.51 1020.89 1021.21 1021.47 1021.68 1021.82 1021.90 1021.93 1021.90 1021.83 1021.73 1021.60 1021.44 1021.28 1021.11 1020.94 1020.79 1020.66 1020.55 1020.48 1020.43 1020.40 1020.40 1020.41 1020.42 1020.44 1020.45 1020.44 1020.43 1020.40 1020.36 1020.31 1020.25 1020.19 1020.14 1020.11 1020.12 1020.17 1020.30 1020.50 1020.77 1021.12 1021.52
1021.13 1021.49 1021.78 1022.02 1022.19 1022.31 1022.38 1022.39 1022.34 1022.25 1022.10 1021.93 1021.72 1021.51 1021.29 1021.08 1020.91 1020.78 1020.70 1020.67 1020.68 1020.72 1020.78 1020.84 1020.89 1020.92 1020.92 1020.88 1020.81 1020.72 1020.62 1020.52 1020.42 1020.35 1020.31 1020.31 1020.36 1020.46 1020.61 1020.82 1021.08 1021.38 1021.71
1021.42 1021.76 1022.04 1022.26 1022.42 1022.53 1022.59 1022.59 1022.54 1022.44 1022.29 1022.10 1021.87 1021.64 1021.41 1021.20 1021.04 1020.93 1020.88 1020.90 1020.96 1021.06 1021.18 1021.28 1021.35 1021.38 1021.36 1021.28 1021.17 1021.02 1020.86 1020.71 1020.58 1020.49 1020.45 1020.46 1020.53 1020.65 1020.82 1021.03 1021.26 1021.51 1021.77
1021.43 1021.76 1022.02 1022.23 1022.39 1022.50 1022.55 1022.56 1022.52 1022.43 1022.29 1022.11 1021.91 1021.69 1021.48 1021.31 1021.19 1021.12 1021.13 1021.19 1021.31 1021.45 1021.60 1021.73 1021.81 1021.83 1021.79 1021.68 1021.52 1021.32 1021.12 1020.92 1020.76 1020.65 1020.59 1020.60 1020.67 1020.79 1020.95 1021.14 1021.35 1021.55 1021.74
1021.26 1021.57 1021.82 1022.01 1022.16 1022.26 1022.32 1022.35 1022.32 1022.26 1022.16 1022.02 1021.86 1021.70 1021.55 1021.44 1021.38 1021.37 1021.44 1021.55 1021.71 1021.89 1022.06 1022.20 1022.29 1022.30 1022.24 1022.10 1021.91 1021.68 1021.44 1021.21 1021.02 1020.88 1020.81 1020.79 1020.84 1020.94 1021.08 1021.23 1021.40 1021.56 1021.70
1021.03 1021.30 1021.52 1021.69 1021.82 1021.91 1021.98 1022.02 1022.02 1022.00 1021.95 1021.87 1021.79 1021.70 1021.63 1021.60 1021.61 1021.68 1021.80 1021.96 1022.16 1022.36 1022.55 1022.69 1022.77 1022.78 1022.70 1022.56 1022.35 1022.11 1021.86 1021.61 1021.40 1021.23 1021.13 1021.08 1021.09 1021.15 1021.24 1021.36 1021.48 1021.59 1021.70
1020.82 1021.05 1021.23 1021.37 1021.47 1021.55 1021.62 1021.67 1021.70 1021.72 1021.73 1021.72 1021.72 1021.72 1021.74 1021.79 1021.88 1022.01 1022.19 1022.39 1022.61 1022.83 1023.02 1023.16 1023.24 1023.25 1023.18 1023.04 1022.84 1022.61 1022.36 1022.11 1021.89 1021.70 1021.57 1021.48 1021.44 1021.44 1021.48 1021.54 1021.61 1021.69 1021.77
1020.71 1020.89 1021.02 1021.11 1021.19 1021.25 1021.31 1021.36 1021.42 1021.49 1021.55 1021.61 1021.69 1021.77 1021.87 1022.00 1022.16 1022.34 1022.56 1022.78 1023.02 1023.24 1023.43 1023.57 1023.65 1023.67 1023.62 1023.50 1023.33 1023.13 1022.90 1022.66 1022.44 1022.24 1022.08 1021.95 1021.86 1021.80 1021.78 1021.78 1021.80 1021.83 1021.88
1020.70 1020.82 1020.91 1020.96 1021.01 1021.05 1021.10 1021.17 1021.25 1021.34 1021.45 1021.57 1021.71 1021.86 1022.02 1022.20 1022.41 1022.63 1022.86 1023.10 1023.33 1023.54 1023.73 1023.87 1023.96 1023.99 1023.97 1023.89 1023.76 1023.59 1023.40 1023.19 1022.98 1022.78 1022.59 1022.42 1022.28 1022.16 1022.08 1022.02 1021.98 1021.97 1021.98
1020.77 1020.85 1020.90 1020.92 1020.94 1020.97 1021.02 1021.09 1021.18 1021.30 1021.44 1021.60 1021.78 1021.96 1022.16 1022.37 1022.60 1022.82 1023.05 1023.28 1023.50 1023.70 1023.87 1024.01 1024.11 1024.16 1024.17 1024.13 1024.04 1023.92 1023.77 1023.59 1023.40 1023.20 1023.00 1022.80 1022.61 1022.44 1022.30 1022.19 1022.10 1022.05 1022.03
1020.88 1020.93 1020.95 1020.96 1020.97 1020.99 1021.04 1021.12 1021.22 1021.36 1021.51 1021.69 1021.87 1022.07 1022.27 1022.48 1022.70 1022.91 1023.12 1023.32 1023.52 1023.69 1023.85 1023.98 1024.09 1024.15 1024.19 1024.18 1024.14 1024.06 1023.95 1023.80 1023.63 1023.43 1023.22 1023.00 1022.78 1022.57 1022.39 1022.23 1022.10 1022.02 1021.96
Thickness
5725 5723 5719 5716 5711 5708 5706 5703 5701 5700 5699 5697 5695 5693 5692 5691 5690 5689 5689 5689 5689 5690 5692 5694 5696 5697 5697 5697 5698 5699 5700 5701 5701 5700 5700 5704 5707 5708 5709 5709 5708 5707 5706
5719 5716 5713 5709 5705 5702 5699 5697 5695 5694 5693 5691 5689 5688 5687 5686 5685 5683 5682 5682 5683 5684 5686 5687 5690 5691 5692 5692 5692 5693 5693 5695 5697 5694 5691 5691 5694 5699 5703 5703 5702 5701 5700
5716 5712 5708 5704 5700 5696 5694 5692 5689 5687 5686 5686 5685 5682 5681 5679 5677 5676 5676 5676 5677 5678 5679 5681 5683 5684 5686 5686 5687 5688 5688 5687 5691 5693 5689 5685 5684 5688 5693 5695 5696 5695 5694
5715 5709 5704 5699 5696 5692 5689 5685 5682 5681 5680 5680 5678 5675 5672 5670 5670 5670 5670 5670 5671 5671 5672 5673 5675 5677 5679 5680 5682 5683 5683 5683 5683 5687 5688 5687 5686 5681 5680 5684 5687 5688 5686
5714 5706 5701 5695 5691 5687 5683 5679 5676 5674 5673 5673 5671 5669 5667 5665 5665 5664 5664 5665 5665 5666 5666 5667 5668 5671 5672 5673 5675 5675 5676 5678 5678 5679 5680 5681 5681 5681 5676 5673 5676 5677 5677
5710 5703 5696 5690 5685 5682 5678 5673 5669 5666 5666 5665 5664 5661 5659 5658 5657 5657 5657 5658 5659 5660 5659 5660 5661 5663 5664 5666 5667 5668 5670 5671 5672 5673 5674 5674 5674 5674 5673 5670 5669 5668 5668
5705 5696 5688 5683 5678 5674 5671 5667 5663 5660 5658 5657 5656 5654 5653 5651 5650 5649 5650 5651 5651 5652 5652 5653 5654 5655 5657 5658 5660 5661 5663 5664 5665 5666 5668 5669 5670 5670 5669 5667 5665 5663 5661
5698 5690 5682 5676 5671 5668 5664 5661 5656 5653 5651 5650 5648 5647 5646 5645 5644 5643 5644 5644 5644 5644 5644 5645 5647 5648 5650 5651 5653 5655 5656 5657 5658 5660 5661 5662 5664 5665 5665 5663 5659 5655 5653
5689 5682 5675 5670 5665 5661 5657 5653 5649 5646 5644 5642 5641 5639 5638 5637 5635 5635 5636 5636 5636 5637 5637 5638 5639 5640 5641 5643 5645 5646 5648 5649 5650 5652 5654 5656 5657 5658 5659 5658 5656 5652 5648
5682 5675 5668 5663 5658 5653 5649 5646 5642 5639 5637 5635 5633 5631 5629 5628 5627 5627 5626 5626 5627 5628 5629 5630 5630 5631 5633 5634 5636 5638 5639 5641 5642 5644 5646 5647 5649 5651 5651 5652 5652 5651 5647
5673 5667 5661 5655 5649 5645 5641 5637 5634 5631 5628 5626 5624 5622 5621 5620 5618 5617 5617 5618 5618 5619 5620 5621 5622 5622 5624 5625 5626 5628 5630 5632 5634 5636 5638 5640 5641 5642 5643 5644 5645 5644 5642
5664 5658 5652 5646 5640 5635 5632 5628 5625 5622 5620 5618 5616 5614 5613 5612 5610 5609 5608 5609 5609 5610 5611 5611 5612 5613 5614 5615 5616 5618 5620 5622 5624 5627 5629 5631 5633 5634 5635 5636 5636 5635 5634
5653 5648 5643 5637 5631 5626 5622 5619 5616 5614 5612 5610 5607 5605 5604 5603 5601 5600 5600 5600 5601 5602 5602 5602 5602 5603 5604 5605 5606 5608 5610 5612 5614 5616 5618 5621 5623 5624 5625 5626 5625 5625 5625
5644 5639 5633 5627 5622 5617 5613 5610 5608 5606 5604 5601 5598 5596 5595 5594 5593 5592 5592 5592 5593 5593 5593 5592 5593 5594 5593 5594 5595 5597 5600 5601 5603 5605 5607 5609 5612 5614 5615 5616 5615 5615 5613
5634 5629 5623 5618 5613 5608 5604 5602 5599 5598 5596 5593 5590 5588 5587 5586 5585 5584 5583 5583 5583 5584 5583 5584 5584 5584 5583 5581 5582 5586 5590 5591 5592 5594 5595 5597 5600 5603 5606 5607 5606 5605 5604
5625 5620 5614 5609 5605 5600 5597 5594 5591 5589 5587 5584 5581 5580 5579 5578 5576 5576 5575 5575 5574 5574 5574 5574 5574 5573 5571 5570 5572 5575 5578 5581 5582 5584 5585 5588 5590 5592 5594 5595 5596 5596 5596
5618 5612 5606 5602 5598 5594 5590 5586 5584 5582 5579 5576 5574 5572 5571 5569 5568 5568 5566 5565 5565 5565 5564 5564 5563 5562 5560 5561 5563 5566 5569 5571 5573 5574 5577 5579 5580 5582 5584 5585 5586 5587 5588
5611 5605 5600 5595 5591 5587 5583 5580 5577 5575 5572 5569 5567 5565 5564 5561 5560 5559 5558 5556 5556 5556 5555 5555 5555 5554 5553 5553 5555 5558 5561 5563 5564 5565 5567 5568 5569 5572 5574 5576 5577 5578 5579
5605 5599 5594 5589 5585 5580 5577 5573 5570 5567 5565 5562 5559 5558 5556 5554 5552 5551 5550 5549 5548 5548 5548 5548 5548 5547 5546 5546 5548 5550 5554 5554 5555 5556 5557 5559 5561 5563 5566 5569 5570 5571 5571
5598 5592 5588 5583 5577 5573 5569 5566 5562 5560 5557 5555 5553 5551 5549 5547 5545 5544 5543 5542 5541 5542 5542 5541 5541 5540 5539 5539 5541 5543 5547 5548 5548 5549 5549 5550 5552 5556 5559 5562 5563 5564 5566
5591 5585 5580 5575 5570 5567 5563 5559 5556 5553 5552 5550 5548 5545 5543 5541 5539 5538 5537 5536 5536 5536 5535 5535 5534 5534 5533 5533 5534 5536 5539 5542 5543 5543 5543 5543 5545 5549 5552 5555 5556 5557 5560
5584 5579 5574 5569 5565 5562 5558 5555 5551 5550 5548 5545 5542 5540 5538 5537 5535 5533 5533 5532 5531 5530 5530 5530 5529 5529 5529 5528 5528 5530 5532 5535 5537 5537 5538 5538 5540 5543 5547 5550 5552 5554 5557
5580 5575 5570 5564 5560 5557 5555 5551 5548 5547 5544 5540 5538 5537 5535 5533 5531 5530 5529 5528 5528 5527 5527 5527 5526 5525 5525 5524 5524 5525 5526 5529 5530 5531 5532 5534 5536 5539 5542 5546 5549 5552 5555
5577 5572 5566 5561 5557 5554 5552 5549 5547 5544 5540 5537 5535 5534 5532 5530 5528 5527 5526 5525 5524 5524 5524 5524 5523 5523 5522 5521 5520 5522 5523 5524 5526 5528 5529 5531 5533 5536 5539 5543 5548 5551 5554
5576 5570 5565 5560 5556 5553 5550 5548 5545 5542 5538 5536 5534 5532 5531 5528 5526 5524 5520 5520 5517 5517 5517 5518 5519 5519 5517 5513 5514 5517 5519 5520 5521 5524 5528 5531 5533 5536 5539 5543 5547 5550 5552
5575 5569 5564 5560 5556 5553 5550 5547 5545 5542 5538 5535 5533 5532 5531 5528 5527 5524 5520 5516 5516 5514 5514 5513 5513 5513 5513 5512 5514 5516 5518 5520 5521 5524 5527 5531 5535 5538 5541 5544 5546 5549 5552